• In Belarus
  • List of Countries
  • For 7 days
  • Water Temperature
  • Satellite Maps
  • Weather Map
  • Weather Widgets
  • user-avatar
    Login

    Hourly Weather Portalegre

    Today, 18 September, Tuesday

    Time Temperature Precipitation Wind Pressure Humidity
    00:00 +23°C° 0 mm 1 mps 722 mmHg 46%
    01:00 +23°C° 0 mm 1 mps 722 mmHg 47%
    02:00 +22°C° 0 mm 1 mps 722 mmHg 49%
    03:00 +22°C° 0 mm 1 mps 722 mmHg 50%
    04:00 +21°C° 0 mm 1 mps 722 mmHg 51%
    05:00 +21°C° 0 mm 1 mps 722 mmHg 53%
    06:00 +20°C° 0 mm 1 mps 723 mmHg 53%
    07:00 +22°C° 0 mm 1 mps 723 mmHg 48%
    08:00 +24°C° 0 mm 1 mps 723 mmHg 42%
    09:00 +26°C° 0 mm 1 mps 724 mmHg 37%
    10:00 +28°C° 0 mm 1 mps 724 mmHg 34%
    11:00 +30°C° 0 mm 2 mps 724 mmHg 31%
    12:00 +32°C° 0 mm 2 mps 724 mmHg 27%
    13:00 +32°C° 0 mm 2 mps 724 mmHg 26%
    14:00 +34°C° 0 mm 3 mps 724 mmHg 25%
    15:00 +34°C° 0 mm 3 mps 724 mmHg 23%
    16:00 +33°C° 0 mm 3 mps 724 mmHg 26%
    17:00 +31°C° 0 mm 3 mps 724 mmHg 29%
    18:00 +30°C° 0 mm 3 mps 724 mmHg 31%
    19:00 +28°C° 0 mm 3 mps 724 mmHg 39%
    20:00 +26°C° 0 mm 3 mps 724 mmHg 47%
    21:00 +24°C° 0 mm 3 mps 725 mmHg 54%
    22:00 +23°C° 0 mm 2 mps 725 mmHg 57%
    23:00 +23°C° 0 mm 2 mps 725 mmHg 60%

    Tomorrow, 19 September, Wednesday

    Time Temperature Precipitation Wind Pressure Humidity
    00:00 +22°C° 0 mm 1 mps 724 mmHg 63%
    01:00 +22°C° 0 mm 1 mps 724 mmHg 64%
    02:00 +21°C° 0 mm 1 mps 724 mmHg 65%
    03:00 +21°C° 0 mm 1 mps 724 mmHg 67%
    04:00 +20°C° 0 mm 1 mps 724 mmHg 67%
    05:00 +20°C° 0 mm 1 mps 724 mmHg 68%
    06:00 +20°C° 0 mm 1 mps 724 mmHg 68%
    07:00 +22°C° 0 mm 1 mps 725 mmHg 59%
    08:00 +24°C° 0 mm 1 mps 725 mmHg 50%
    09:00 +27°C° 0 mm 1 mps 726 mmHg 41%
    10:00 +29°C° 0 mm 1 mps 726 mmHg 35%
    11:00 +32°C° 0 mm 1 mps 726 mmHg 29%
    12:00 +32°C° 0 mm 0 mps 726 mmHg 23%
    13:00 +34°C° 0 mm 1 mps 726 mmHg 22%
    14:00 +34°C° 0 mm 1 mps 726 mmHg 21%
    15:00 +36°C° 0 mm 2 mps 725 mmHg 20%
    16:00 +34°C° 0 mm 2 mps 725 mmHg 22%
    17:00 +32°C° 0 mm 2 mps 725 mmHg 23%
    18:00 +31°C° 0 mm 2 mps 725 mmHg 25%
    19:00 +29°C° 0 mm 2 mps 725 mmHg 29%
    20:00 +27°C° 0 mm 2 mps 725 mmHg 34%
    21:00 +25°C° 0 mm 2 mps 725 mmHg 38%
    22:00 +25°C° 0 mm 2 mps 725 mmHg 40%
    23:00 +24°C° 0 mm 2 mps 725 mmHg 43%

    Day after tomorrow, 20 September, Thursday

    Time Temperature Precipitation Wind Pressure Humidity
    00:00 +23°C° 0 mm 2 mps 725 mmHg 45%
    01:00 +23°C° 0 mm 1 mps 725 mmHg 45%
    02:00 +23°C° 0 mm 1 mps 725 mmHg 45%
    03:00 +22°C° 0 mm 1 mps 724 mmHg 46%
    04:00 +22°C° 0 mm 1 mps 724 mmHg 46%
    05:00 +22°C° 0 mm 1 mps 724 mmHg 46%
    06:00 +21°C° 0 mm 1 mps 724 mmHg 46%
    07:00 +24°C° 0 mm 1 mps 724 mmHg 40%
    08:00 +26°C° 0 mm 1 mps 725 mmHg 35%
    09:00 +28°C° 0 mm 1 mps 726 mmHg 29%
    10:00 +30°C° 0 mm 1 mps 726 mmHg 27%
    11:00 +32°C° 0 mm 1 mps 726 mmHg 24%
    12:00 +34°C° 0 mm 1 mps 726 mmHg 21%
    13:00 +34°C° 0 mm 1 mps 725 mmHg 21%
    14:00 +36°C° 0 mm 2 mps 725 mmHg 20%
    15:00 +36°C° 0 mm 2 mps 725 mmHg 20%
    16:00 +34°C° 0 mm 3 mps 725 mmHg 22%
    17:00 +33°C° 0 mm 3 mps 724 mmHg 24%
    18:00 +32°C° 0 mm 4 mps 724 mmHg 27%
    19:00 +29°C° 0 mm 3 mps 725 mmHg 31%
    20:00 +27°C° 0 mm 3 mps 725 mmHg 35%
    21:00 +25°C° 0 mm 3 mps 725 mmHg 40%
    22:00 +24°C° 0 mm 3 mps 725 mmHg 43%
    23:00 +23°C° 0 mm 2 mps 725 mmHg 46%

    21 September, Friday

    Time Temperature Precipitation Wind Pressure Humidity
    00:00 +21°C° 0 mm 2 mps 725 mmHg 49%
    01:00 +20°C° 0 mm 2 mps 725 mmHg 52%
    02:00 +20°C° 0 mm 2 mps 725 mmHg 54%
    03:00 +19°C° 0 mm 2 mps 724 mmHg 56%
    04:00 +19°C° 0 mm 2 mps 724 mmHg 57%
    05:00 +19°C° 0 mm 1 mps 725 mmHg 57%
    06:00 +19°C° 0 mm 1 mps 725 mmHg 58%
    07:00 +21°C° 0 mm 1 mps 725 mmHg 50%
    08:00 +23°C° 0 mm 2 mps 726 mmHg 42%
    09:00 +25°C° 0 mm 2 mps 726 mmHg 34%
    10:00 +28°C° 0 mm 2 mps 726 mmHg 29%
    11:00 +30°C° 0 mm 2 mps 726 mmHg 23%
    12:00 +32°C° 0 mm 2 mps 726 mmHg 17%
    13:00 +34°C° 0 mm 2 mps 726 mmHg 16%
    14:00 +35°C° 0 mm 2 mps 726 mmHg 14%
    15:00 +35°C° 0 mm 2 mps 725 mmHg 13%
    16:00 +34°C° 0 mm 2 mps 725 mmHg 16%
    17:00 +32°C° 0 mm 2 mps 725 mmHg 18%
    18:00 +31°C° 0 mm 2 mps 725 mmHg 21%
    19:00 +29°C° 0 mm 2 mps 725 mmHg 28%
    20:00 +27°C° 0 mm 2 mps 726 mmHg 35%
    21:00 +25°C° 0 mm 2 mps 726 mmHg 42%
    22:00 +25°C° 0 mm 2 mps 726 mmHg 46%
    23:00 +24°C° 0 mm 2 mps 726 mmHg 50%

    22 September, Saturday

    Time Temperature Precipitation Wind Pressure Humidity
    00:00 +23°C° 0 mm 2 mps 726 mmHg 54%
    01:00 +23°C° 0 mm 2 mps 726 mmHg 55%
    02:00 +23°C° 0 mm 1 mps 726 mmHg 57%
    03:00 +22°C° 0 mm 1 mps 726 mmHg 59%
    04:00 +22°C° 0 mm 1 mps 726 mmHg 59%
    05:00 +22°C° 0 mm 1 mps 726 mmHg 60%
    06:00 +21°C° 0 mm 2 mps 726 mmHg 60%
    07:00 +24°C° 0 mm 2 mps 727 mmHg 52%
    08:00 +26°C° 0 mm 2 mps 727 mmHg 44%
    09:00 +28°C° 0 mm 2 mps 728 mmHg 36%
    10:00 +31°C° 0 mm 2 mps 728 mmHg 31%
    11:00 +34°C° 0 mm 2 mps 728 mmHg 25%
    12:00 +35°C° 0 mm 1 mps 728 mmHg 20%
    13:00 +36°C° 0 mm 1 mps 728 mmHg 19%
    14:00 +36°C° 0 mm 1 mps 727 mmHg 17%
    15:00 +37°C° 0 mm 1 mps 727 mmHg 16%
    16:00 +36°C° 0 mm 1 mps 727 mmHg 18%
    17:00 +34°C° 0 mm 1 mps 727 mmHg 20%
    18:00 +33°C° 0 mm 1 mps 726 mmHg 21%
    19:00 +31°C° 0 mm 1 mps 727 mmHg 24%
    20:00 +30°C° 0 mm 1 mps 727 mmHg 26%
    21:00 +28°C° 0 mm 1 mps 727 mmHg 28%
    22:00 +27°C° 0 mm 1 mps 727 mmHg 30%
    23:00 +27°C° 0 mm 1 mps 727 mmHg 32%

    23 September, Sunday

    Time Temperature Precipitation Wind Pressure Humidity
    00:00 +26°C° 0 mm 1 mps 727 mmHg 33%
    01:00 +26°C° 0 mm 1 mps 727 mmHg 35%
    02:00 +25°C° 0 mm 1 mps 727 mmHg 36%
    03:00 +25°C° 0 mm 1 mps 726 mmHg 37%
    04:00 +24°C° 0 mm 1 mps 727 mmHg 38%
    05:00 +24°C° 0 mm 1 mps 727 mmHg 39%
    06:00 +23°C° 0 mm 1 mps 727 mmHg 40%
    07:00 +26°C° 0 mm 1 mps 727 mmHg 36%
    08:00 +28°C° 0 mm 1 mps 727 mmHg 32%
    09:00 +30°C° 0 mm 1 mps 728 mmHg 27%
    10:00 +33°C° 0 mm 1 mps 728 mmHg 24%
    11:00 +35°C° 0 mm 1 mps 728 mmHg 21%
    12:00 +37°C° 0 mm 1 mps 728 mmHg 17%
    13:00 +39°C° 0 mm 1 mps 728 mmHg 17%
    14:00 +39°C° 0 mm 2 mps 727 mmHg 17%
    15:00 +39°C° 0 mm 2 mps 727 mmHg 16%
    16:00 +37°C° 0 mm 2 mps 727 mmHg 19%
    17:00 +36°C° 0 mm 2 mps 727 mmHg 21%
    18:00 +35°C° 0 mm 2 mps 726 mmHg 23%
    19:00 +32°C° 0 mm 2 mps 727 mmHg 28%
    20:00 +30°C° 0 mm 2 mps 727 mmHg 32%
    21:00 +28°C° 0 mm 2 mps 727 mmHg 37%
    22:00 +27°C° 0 mm 2 mps 727 mmHg 39%
    23:00 +27°C° 0 mm 2 mps 727 mmHg 41%
    Show more